Regional Weather Roundup
Issued by NWS Nashville, TN

Home | Current Version | Previous Version | Text Only | Print | Product List | Glossary On
Versions: 1 2 3 4 5 6 7 8 9 10 11 12 13 14 15 16 17 18 19 20 21 22 23 24 25 26 27 28 29 30 31 32 33 34 35 36 37 38 39 40 41 42 43 44 45 46 47 48 49 50
000
ASUS44 KOHX 230815
RWROHX
MIDDLE TENNESSEE HOURLY WEATHER ROUNDUP
NATIONAL WEATHER SERVICE NASHVILLE TN
200 AM CST SUN NOV 23 2014

NOTE: "FAIR" INDICATES FEW OR NO CLOUDS BELOW 12,000 FEET WITH
NO SIGNIFICANT WEATHER AND/OR OBSTRUCTIONS TO VISIBILITY.

* THESE REPORTS ARE NOT UNDER NWS QUALITY CONTROL AND MAY NOT
  REPORT WEATHER SUCH AS PRECIPITATION AND FOG.


TNZ005>011-023>034-057-059-062>066-078-080-230900
...NORTHERN MIDDLE TENNESSEE...

CITY           SKY/WX    TMP DP  RH WIND       PRES   REMARKS
CLARKSVILLE    CLEAR     53  40  61 S7        29.98F
CROSSVILLE     MOCLDY    53  34  48 S7        30.09F
GALLATIN       MOCLDY    53  39  59 SE6       30.04F
DICKSON        CLOUDY    55  41  58 SE10G22   29.97F
LIVINGSTON     MOCLDY    64  41  43 S10       30.05F
NASHVILLE      MOCLDY    53  37  54 SE7       30.03S
WEST NASHVILLE   N/A     54  36  50 SE9       30.02F
PORTLAND         N/A     52  36  54 S10       30.00F
SMYRNA         MOCLDY    55  38  52 S10       30.03F
SPARTA         CLOUDY    55  43  62 S9        30.06F
$$
TNZ056-058-060-061-075>077-079-093>097-230900
...SOUTHERN MIDDLE TENNESSEE...

CITY           SKY/WX    TMP DP  RH WIND       PRES   REMARKS
LEWISBURG      CLOUDY    56  40  55 SE9       30.01F
MCMINNVILLE    CLOUDY    55  43  62 S8        30.05F
MURFREESBORO   MOCLDY    55  39  54 SE9       30.02
SHELBYVILLE    PTCLDY    54  39  58 SE7       30.03F
TULLAHOMA      PTCLDY    54  37  54 SE15      30.03F
WINCHESTER     MOCLDY    54  39  58 SE13      30.04F
$$


...KEY TO REMARKS...
VSB - VISIBILITY IN MILES
WCI - WIND CHILL INDEX
HX  - HEAT INDEX



USA.gov is the U.S. government's official web portal to all federal, state and local government web resources and services.